Home   Weather   Dalian   Past weeks

Flag for China Past Weather in Dalian, Liaoning, China — Yesterday and Last 2 Weeks

Now
54 °F

Fog.


Feels Like: 53 °F
Forecast: 47 / 58 °F
Wind: 3 mph from Southeast

Location: Dalian Airport

Current Time: Apr 24, 2017 at 7:56:19 pm

Latest Report: Apr 24, 2017 at 7:30 pm


Visibility: 2 mi

Pressure: 29.95 "Hg

Humidity: 94%

Dew Point: 52 °F

Location of DalianLocation

Past Weather in Dalian — Graph

°F

Dalian Temperature Yesterday

Maximum temperature yesterday: 68 °F (at 10:00 am)
Minimum temperature yesterday: 55 °F (at 4:00 am)
Average temperature yesterday: 61 °F

High & Low Weather Summary for the Past Weeks

 TemperatureHumidityPressure
High73 °F (Apr 22, 12:30 pm)100% (Apr 15, 4:30 am)30.07 "Hg (Apr 15, 4:30 am)
Low41 °F (Apr 12, 3:30 am)12% (Apr 11, 5:00 pm)29.39 "Hg (Apr 18, 1:00 am)
Average56 °F54%29.83 "Hg
* Reported Apr 9 6:00 pm — Apr 24 6:30 pm, Dalian, Weather by CustomWeather, © 2017

Note: Actual official high and low records may vary slightly from our data, if they occured in-between our weather recording intervals... More about our weather records

Advertising

Dalian Weather History for the Previous 24 Hours

Scroll right to see more
 ConditionsComfort  
Time TempWeatherWind HumidityBarometerVisibility
6:30 pm
Mon, Apr 24
55 °FFog.3 mph88%29.92 "Hg2 mi
6:00 pm57 °FFog.3 mph82%29.92 "Hg2 mi
5:30 pm57 °FFog.3 mph82%29.92 "Hg2 mi
5:00 pm57 °FFog.3 mph82%29.92 "Hg2 mi
4:30 pm57 °FFog.3 mph82%29.92 "Hg2 mi
4:00 pm57 °FFog.3 mph88%29.92 "Hg2 mi
3:30 pm55 °FFog.3 mph88%29.92 "Hg1 mi
3:00 pm55 °FFog.6 mph88%29.92 "Hg2 mi
2:30 pm57 °FBroken clouds.3 mph82%29.89 "Hg4 mi
2:00 pm57 °FPartly sunny.3 mph88%29.89 "Hg4 mi
1:30 pm55 °FFog.3 mph88%29.92 "Hg3 mi
1:00 pm54 °FLight rain. Fog.3 mph94%29.89 "Hg2 mi
12:30 pm54 °FLight rain. Fog.6 mph94%29.89 "Hg2 mi
12:00 pm54 °FSprinkles. Fog.6 mph88%29.89 "Hg2 mi
11:30 am54 °FSprinkles. Fog.3 mph88%29.92 "Hg2 mi
10:30 am55 °FSprinkles. Fog.6 mph88%29.89 "Hg2 mi
10:00 am55 °FThunderstorms. Fog.6 mph94%29.89 "Hg1 mi
9:30 am55 °FThunderstorms. Fog.3 mph88%29.89 "Hg1 mi
9:00 am54 °FThunderstorms. Fog.1 mph94%29.89 "Hg1 mi
8:30 am55 °FThunderstorms. Fog.1 mph82%29.89 "Hg2 mi
8:00 am57 °FThunderstorms. Broken clouds.10 mph72%29.92 "Hg4 mi
7:30 am59 °FSprinkles. Partly sunny.10 mph63%29.89 "HgN/A
7:00 am57 °FScattered clouds.1 mph67%29.86 "HgN/A
6:30 am55 °FScattered clouds.3 mph72%29.83 "HgN/A
6:00 am57 °FScattered clouds.8 mph67%29.83 "HgN/A
5:30 am57 °FScattered clouds.6 mph67%29.80 "HgN/A
4:30 am59 °FPassing clouds.3 mph59%29.83 "HgN/A
4:00 am59 °FPassing clouds.6 mph59%29.83 "HgN/A
3:30 am57 °FPassing clouds.13 mph63%29.83 "HgN/A
3:00 am57 °FPassing clouds.8 mph63%29.83 "HgN/A
2:30 am57 °FPassing clouds.8 mph63%29.83 "HgN/A
2:00 am57 °FPassing clouds.13 mph63%29.83 "HgN/A
1:30 am59 °FPassing clouds.13 mph59%29.83 "HgN/A
1:00 am59 °FPassing clouds.10 mph59%29.83 "HgN/A
12:30 am59 °FPassing clouds.13 mph59%29.86 "HgN/A
12:00 am59 °FPassing clouds.6 mph59%29.86 "HgN/A
11:30 pm
Sun, Apr 23
57 °FPassing clouds.8 mph59%29.86 "HgN/A
11:00 pm57 °FPassing clouds.3 mph59%29.86 "HgN/A
10:30 pm57 °FPassing clouds.3 mph59%29.86 "HgN/A
10:00 pm59 °FPassing clouds.3 mph55%29.86 "HgN/A
9:00 pm57 °FPassing clouds.6 mph59%29.86 "HgN/A
8:30 pm57 °FPassing clouds.8 mph63%29.86 "HgN/A
8:00 pm57 °FPassing clouds.10 mph63%29.86 "HgN/A
7:30 pm59 °FPassing clouds.10 mph59%29.86 "HgN/A
7:00 pm63 °FPassing clouds.1 mph42%29.83 "HgN/A
Weather by CustomWeather, © 2017

See weather overviewHow to use our weather pages